GW4178 Weather Reports


time (UTC)temp
C
wind
direction
speed
KPH
gust
KPH
rain 1hr
cm
rain 24hr
cm
rain mn
cm
humidity
%
barometer
mb
20260506233058 23 265 20.9 30.6 0.00 0.00 0.00 50 1016.7
20260506231558 23 256 19.3 30.6 0.00 0.00 0.00 50 1016.7
20260506230059 25 219 11.3 24.1 0.00 0.00 0.00 47 1017.0
20260506224553 25 263 12.9 29.0 0.00 0.00 0.00 48 1016.9
20260506223100 25 244 16.1 30.6 0.00 0.00 0.00 49 1017.1
20260506221555 23 257 19.3 30.6 0.00 0.00 0.00 47 1017.2
20260506220056 23 294 17.7 25.7 0.00 0.00 0.00 50 1017.4
20260506214604 23 272 17.7 25.7 0.00 0.00 0.00 50 1017.6
20260506213056 23 262 14.5 24.1 0.00 0.00 0.00 49 1017.7
20260506211603 23 292 16.1 25.7 0.00 0.00 0.00 50 1017.8
20260506210056 22 257 16.1 27.4 0.00 0.00 0.00 50 1017.8
20260506204600 22 250 16.1 25.7 0.00 0.00 0.00 50 1017.7
20260506203059 22 279 17.7 29.0 0.00 0.00 0.00 48 1017.7
20260506201601 22 253 17.7 27.4 0.00 0.00 0.00 51 1017.8
20260506200103 22 244 16.1 25.7 0.00 0.00 0.00 50 1017.9
20260506194606 21 273 14.5 24.1 0.00 0.00 0.00 51 1018.0
20260506193059 21 207 16.1 24.1 0.00 0.00 0.00 51 1018.1
20260506191609 21 279 11.3 30.6 0.00 0.00 0.00 52 1018.1
20260506190059 20 265 14.5 24.1 0.00 0.00 0.00 54 1018.2
20260506184554 20 287 11.3 20.9 0.00 0.00 0.00 53 1018.3
20260506183108 20 260 8.0 16.1 0.00 0.00 0.00 52 1018.5
20260506181602 20 295 6.4 14.5 0.00 0.00 0.00 54 1018.6
20260506180115 19 249 6.4 11.3 0.00 0.00 0.00 52 1018.7
20260506174554 18 219 3.2 12.9 0.00 0.00 0.00 56 1018.7
20260506173126 18 221 6.4 14.5 0.00 0.00 0.00 55 1018.6
20260506171553 17 269 4.8 12.9 0.00 0.00 0.00 56 1018.8
20260506170053 18 0 1.6 4.8 0.00 0.00 0.00 54 1018.8
20260506164555 18 124 0.0 4.8 0.00 0.00 0.00 57 1018.8
20260506163100 17 0 0.0 6.4 0.00 0.00 0.00 59 1018.7
20260506161556 16 0 0.0 4.8 0.00 0.00 0.00 61 1018.9
20260506160053 13 275 3.2 8.0 0.00 0.00 0.00 66 1019.0
20260506154557 13 310 1.6 6.4 0.00 0.00 0.00 68 1019.1
20260506153052 12 325 3.2 6.4 0.00 0.00 0.00 70 1019.1
20260506151554 13 81 0.0 3.2 0.00 0.00 0.00 67 1019.1
20260506150058 13 81 0.0 3.2 0.00 0.00 0.00 73 1019.1
20260506144605 12 81 1.6 6.4 0.00 0.00 0.00 77 1019.1
20260506143055 11 80 3.2 4.8 0.00 0.00 0.00 82 1019.2
20260506141555 10 79 4.8 8.0 0.00 0.00 0.00 86 1019.1
20260506140052 8 78 6.4 11.3 0.00 0.00 0.00 92 1019.1
20260506134555 7 78 1.6 4.8 0.00 0.00 0.00 94 1019.1
20260506133101 6 76 6.4 11.3 0.00 0.00 0.00 93 1018.9
20260506131553 6 81 4.8 8.0 0.00 0.00 0.00 93 1019.0
20260506130053 6 0 0.0 0.0 0.00 0.00 0.00 93 1018.9
20260506124552 6 0 0.0 8.0 0.00 0.00 0.00 92 1018.8
20260506123056 6 48 3.2 11.3 0.00 0.00 0.00 92 1018.8
20260506121556 7 105 6.4 12.9 0.00 0.00 0.00 92 1018.8
20260506120055 7 0 0.0 3.2 0.00 0.00 0.00 92 1018.8
20260506114559 7 0 1.6 9.7 0.00 0.00 0.00 92 1018.6
20260506113057 7 106 4.8 11.3 0.00 0.00 0.00 91 1018.5
20260506111600 7 104 3.2 11.3 0.00 0.00 0.00 91 1018.5
20260506110052 8 104 4.8 11.3 0.00 0.00 0.00 91 1018.5
20260506104601 7 92 4.8 9.7 0.00 0.00 0.00 91 1018.3
20260506103100 7 0 0.0 0.0 0.00 0.00 0.00 91 1018.4
20260506101552 7 0 1.6 6.4 0.00 0.00 0.00 90 1018.4
20260506094611 8 123 3.2 11.3 0.00 0.00 0.00 89 1018.3
20260506093052 8 115 8.0 12.9 0.00 0.00 0.00 88 1018.4
20260506091553 9 194 0.0 4.8 0.00 0.00 0.00 88 1018.5
20260506090052 8 0 0.0 4.8 0.00 0.00 0.00 88 1018.7
20260506084556 9 195 0.0 6.4 0.00 0.00 0.00 87 1018.8
20260506083057 9 194 1.6 6.4 0.00 0.00 0.00 88 1018.9
20260506081552 9 126 3.2 6.4 0.00 0.00 0.00 87 1018.7
20260506080106 9 0 0.0 0.0 0.00 0.00 0.00 88 1018.8
20260506073106 8 88 3.2 6.4 0.00 0.00 0.00 90 1018.6
20260506071552 8 87 1.6 6.4 0.00 0.00 0.00 90 1018.7
20260506061552 8 175 1.6 6.4 0.00 0.00 0.00 88 1018.0
20260506044553 10 246 8.0 16.1 0.00 0.00 0.00 81 1017.1
20260506043053 11 220 8.0 16.1 0.00 0.00 0.00 79 1017.0
20260506041556 11 267 11.3 16.1 0.00 0.00 0.00 77 1016.9
20260506040056 11 260 12.9 19.3 0.00 0.00 0.00 75 1016.6
20260506034556 12 318 4.8 8.0 0.00 0.00 0.00 63 1016.2
20260506033106 13 327 6.4 12.9 0.00 0.00 0.00 62 1016.0
20260506031553 13 38 1.6 9.7 0.00 0.00 0.00 60 1015.9
20260506030100 13 0 4.8 14.5 0.00 0.00 0.00 60 1015.6
20260506024608 13 269 3.2 8.0 0.00 0.00 0.00 60 1015.5
20260506023104 14 0 6.4 14.5 0.00 0.00 0.00 58 1015.1
20260506021558 14 263 8.0 19.3 0.00 0.00 0.00 58 1015.1
20260506020052 15 292 3.2 17.7 0.00 0.00 0.00 57 1015.0
20260506014553 15 282 8.0 16.1 0.00 0.00 0.00 57 1014.8
20260506013101 16 261 3.2 12.9 0.00 0.00 0.00 53 1014.7
20260506011620 16 255 0.0 11.3 0.00 0.00 0.00 54 1014.6
20260506010059 16 250 0.0 9.7 0.00 0.00 0.00 55 1014.7
20260506004555 16 352 1.6 12.9 0.00 0.00 0.00 55 1014.7
20260506003056 15 34 8.0 17.7 0.00 0.00 0.00 56 1014.5
20260506001552 15 306 8.0 30.6 0.00 0.00 0.00 65 1014.4
20260506000058 16 250 17.7 29.0 0.00 0.00 0.00 61 1014.2
20260505234554 17 261 11.3 25.7 0.00 0.00 0.00 61 1014.1